[[{"header":{"parameterUnit":"m.s-1","parameterCategory":2,"la1":30.2991,"la2":30.254,"lo1":-89.0895,"lo2":-89.0444,"dy":0.0017,"dx":0.0017,"nx":28,"ny":28,"refTime":"2023-03-30T21:00:00:Z","depth":"0","parameterNumber":2,"parameterNumberName":"U-component_of_CURRENTS"},"data":[0,0,0,0,0,0,0,0,0,0,0,0,0,0,0,0,0,0,0,0,0,0,0,0,0,0,0,0,0,0,0,0,0,0,0,0,0,0,0,0,0,0,0,0,0,0,0,0,0,0,0,0,0,0,0,0,0,0,-0.2418,-0.2419,0,-0.2439,-0.2439,-0.2439,-0.2422,-0.2422,-0.2422,-0.2421,-0.2343,-0.2341,-0.2339,0,0,0,0,0,0,0,0,0,0,0,0,0,-0.2319,-0.2321,-0.2418,-0.2419,-0.242,-0.2439,-0.2439,-0.2439,-0.2422,-0.2422,-0.2422,-0.2421,-0.2343,-0.2341,-0.2339,0,0,0,0,0,0,0,0,0,0,0,0,0,-0.2349,-0.2322,-0.2418,-0.2417,-0.2417,-0.2439,-0.2439,-0.2439,-0.2422,-0.2422,-0.2421,-0.2421,-0.2344,-0.2341,-0.2338,-0.2331,0,0,-0.233,-0.2329,0,0,0,0,0,0,0,0,-0.2348,-0.2353,-0.2417,-0.2417,-0.2418,-0.2432,-0.2376,-0.2399,-0.2422,-0.2416,-0.2421,-0.2421,-0.2366,-0.2362,-0.2362,-0.2327,-0.2324,-0.233,-0.2328,-0.2327,-0.2326,0,0,0,0,0,0,0,-0.2346,-0.2351,-0.2422,-0.2417,-0.2418,-0.24,-0.2404,-0.238,-0.2388,-0.2416,-0.2416,-0.2426,-0.2365,-0.2364,-0.236,-0.2323,-0.233,-0.2328,-0.2326,-0.2325,-0.2302,-0.2303,0,0,0,0,0,0,-0.2356,-0.235,-0.2422,-0.2423,-0.2386,-0.2403,-0.2407,-0.2424,-0.239,-0.2387,-0.2426,-0.2425,-0.2369,-0.2363,-0.2357,-0.2352,-0.2327,-0.2325,-0.2323,-0.2301,-0.2302,-0.2304,0,0,0,0,0,0,-0.2353,-0.2362,-0.2421,-0.239,-0.2397,-0.2406,-0.2425,-0.2425,-0.2427,-0.24,-0.2393,-0.2429,-0.2369,-0.236,-0.2341,-0.2349,-0.2323,-0.2321,-0.23,-0.2302,-0.2303,-0.2339,0,0,0,0,0,0,-0.2351,-0.2361,-0.2367,-0.2391,-0.2399,-0.2443,-0.2426,-0.2426,-0.2436,-0.2434,-0.24,-0.2393,-0.2368,-0.2345,-0.2338,-0.2344,-0.2319,-0.2299,-0.2301,-0.2303,-0.2336,-0.2341,-0.2346,0,0,0,0,0,-0.2347,-0.2356,-0.2368,-0.2376,-0.2411,-0.2444,-0.2446,-0.2447,-0.2436,-0.2445,-0.2419,-0.2394,-0.2353,-0.2343,-0.2335,-0.2341,-0.2298,-0.23,-0.2302,-0.2334,-0.234,-0.2346,0,0,0,0,0,0,-0.2298,-0.2357,-0.2369,-0.2391,-0.2423,-0.2443,-0.2442,-0.2452,-0.244,-0.2429,-0.2398,-0.2389,-0.2379,-0.2359,-0.2349,-0.2344,-0.2325,-0.2325,-0.2352,-0.2357,-0.2362,-0.2363,-0.2316,0,0,0,0,0,-0.2299,-0.2329,-0.2376,-0.2391,-0.2407,-0.2427,-0.2436,-0.2447,-0.2447,-0.2442,-0.2423,-0.24,-0.2383,-0.2369,-0.2353,-0.2341,-0.229,-0.2344,-0.2349,-0.2353,-0.2351,-0.2273,-0.2269,-0.2311,-0.2311,-0.2311,0,0,-0.2279,-0.2317,-0.233,-0.2384,-0.2399,-0.2427,-0.2429,-0.2451,-0.2467,-0.2432,-0.2429,-0.2415,-0.2386,-0.2379,-0.2372,-0.2359,-0.2317,-0.2356,-0.2359,-0.2355,-0.2275,-0.227,-0.2266,-0.2313,-0.2312,-0.2312,0,0,-0.2252,-0.2294,-0.2306,-0.2348,-0.2394,-0.242,-0.2432,-0.2465,-0.2469,-0.2475,-0.2456,-0.2443,-0.2421,-0.2403,-0.2389,-0.2409,-0.2347,-0.2416,-0.2431,-0.2355,-0.235,-0.2345,-0.2277,-0.2266,-0.2413,-0.2413,-0.2413,0,-0.2214,-0.2255,-0.2311,-0.2341,-0.2372,-0.242,-0.244,-0.246,-0.2482,-0.2476,-0.2477,-0.2442,-0.2428,-0.2402,-0.2426,-0.2416,-0.2366,-0.2408,-0.2358,-0.2352,-0.2346,-0.2277,-0.2264,-0.2415,-0.2415,-0.2415,-0.2415,0,-0.2205,-0.2244,-0.2255,-0.232,-0.2362,-0.2391,-0.2448,-0.2472,-0.2485,-0.2493,-0.2479,-0.2463,-0.2437,-0.2445,-0.2445,-0.2412,-0.2388,-0.2373,-0.2337,-0.2343,-0.2271,-0.2257,-0.2418,-0.2417,-0.2417,-0.2416,0,0,-0.209,-0.222,-0.222,-0.2262,-0.2359,-0.239,-0.2432,-0.2468,-0.2465,-0.2487,-0.2457,-0.2469,-0.246,-0.2446,-0.2441,-0.2398,-0.2333,-0.2383,-0.2378,-0.2303,-0.2164,-0.2116,-0.2095,-0.2302,-0.23,-0.2298,-0.213,0,-0.2052,-0.2109,-0.219,-0.2246,-0.2284,-0.237,-0.2404,-0.2449,-0.2464,-0.2451,-0.244,-0.2416,-0.2459,-0.2441,-0.2412,-0.2346,-0.2296,-0.238,-0.2179,-0.2173,-0.2119,-0.2078,-0.1997,-0.1838,-0.2115,-0.2113,-0.2111,0,-0.2005,-0.2061,-0.2108,-0.2229,-0.2248,-0.2284,-0.2346,-0.2387,-0.24,-0.2407,-0.2394,-0.2381,-0.2349,-0.2369,-0.226,-0.2309,-0.2251,-0.22,-0.2191,-0.2122,-0.2098,-0.1877,-0.1801,-0.1809,-0.2088,-0.209,-0.2092,0,-0.1903,-0.2004,-0.2042,-0.2086,-0.2217,-0.2237,-0.2295,-0.2344,-0.2361,-0.2361,-0.234,-0.2313,-0.2264,-0.2204,-0.2156,-0.2188,-0.2007,-0.2019,-0.1916,-0.1912,-0.1792,-0.1781,-0.1685,-0.1919,-0.1919,-0.192,-0.192,0,-0.185,-0.1879,-0.1992,-0.202,-0.2043,-0.2167,-0.2175,-0.2233,-0.2268,-0.2265,-0.2299,-0.2259,-0.2218,-0.2133,-0.2101,-0.1962,-0.1955,-0.19,-0.1856,-0.1805,-0.1798,-0.1759,-0.1791,-0.1913,-0.1915,-0.1916,-0.1917,0,-0.1743,-0.1827,-0.1867,-0.1975,-0.2001,-0.2013,-0.2108,-0.2128,-0.2177,-0.2163,-0.216,-0.2165,-0.2067,-0.2017,-0.1886,-0.1858,-0.1713,-0.1704,-0.166,-0.1614,-0.1535,-0.1573,-0.1426,-0.1389,-0.1539,-0.1537,-0.1535,0,-0.1696,-0.1706,-0.1791,-0.1812,-0.1855,-0.1898,-0.1945,-0.2052,-0.209,-0.2106,-0.2096,-0.2003,-0.192,-0.1725,-0.1659,-0.1537,-0.1586,-0.1413,-0.1467,-0.15,-0.1509,-0.1562,-0.1547,-0.1317,-0.1313,-0.131,-0.1308,0,-0.159,-0.161,-0.1648,-0.1681,-0.1724,-0.1771,-0.1846,-0.1842,-0.1968,-0.1922,-0.1853,-0.1764,-0.1654,-0.1481,-0.138,-0.133,-0.1392,-0.1348,-0.137,-0.1314,-0.1372,-0.1325,-0.1481,-0.1282,-0.1284,-0.1286,-0.1288,-0.1289,-0.1484,-0.1471,-0.1517,-0.1539,-0.1591,-0.1613,-0.1569,-0.1641,-0.1598,-0.1493,-0.1557,-0.1334,-0.1332,-0.116,-0.1143,-0.1103,-0.1174,-0.1082,-0.1118,-0.1165,-0.1153,-0.1267,-0.1039,-0.104,-0.1041,-0.1042,-0.1043,0,-0.1358,-0.1371,-0.1387,-0.1407,-0.1402,-0.1472,-0.1492,-0.1404,-0.1259,-0.1187,-0.1045,-0.0859,-0.08,-0.0851,-0.0888,-0.088,-0.0909,-0.0898,-0.0957,-0.0946,-0.1006,-0.1024,-0.0796,-0.0796,-0.0797,-0.0797,-0.0797,-0.0797,-0.1304,-0.1272,-0.1285,-0.1214,-0.1216,-0.1128,-0.1075,-0.0954,-0.0856,-0.056,-0.0379,-0.0306,-0.0462,-0.0712,-0.081,-0.0811,-0.0844,-0.0821,-0.0873,-0.0942,-0.0964,-0.0984,-0.1009,-0.0782,-0.0782,-0.0777,-0.0777,-0.0777]},{"header":{"parameterUnit":"m.s-1","parameterCategory":2,"la1":30.2991,"la2":30.254,"lo1":-89.0895,"lo2":-89.0444,"dy":0.0017,"dx":0.0017,"nx":28,"ny":28,"refTime":"2023-03-30T21:00:00:Z","depth":"0","parameterNumber":3,"parameterNumberName":"V-component_of_CURRENTS"},"data":[0,0,0,0,0,0,0,0,0,0,0,0,0,0,0,0,0,0,0,0,0,0,0,0,0,0,0,0,0,0,0,0,0,0,0,0,0,0,0,0,0,0,0,0,0,0,0,0,0,0,0,0,0,0,0,0,0,0,0.0015,0.0016,0,0.0106,0.0107,0.0108,0.0183,0.0184,0.0185,0.0186,0.0305,0.0307,0.031,0,0,0,0,0,0,0,0,0,0,0,0,0,-0.0047,-0.0047,0.0015,0.0016,0.0017,0.0106,0.0107,0.0108,0.0183,0.0184,0.0185,0.0186,0.0304,0.0307,0.031,0,0,0,0,0,0,0,0,0,0,0,0,0,0.0005,-0.0047,0.0015,0.0066,0.0072,0.0106,0.0107,0.0109,0.0183,0.0184,0.0186,0.0187,0.0303,0.0307,0.031,0.0306,0,0,0.0321,0.0323,0,0,0,0,0,0,0,0,0.0001,0.0007,0.0057,0.0062,0.0069,0.0135,0.0129,0.0176,0.0183,0.014,0.0186,0.0187,0.025,0.0258,0.0271,0.0312,0.0317,0.0321,0.0324,0.0325,0.0326,0,0,0,0,0,0,0,-0.0002,0.0003,0.005,0.0058,0.0065,0.0101,0.0109,0.0138,0.0187,0.0144,0.015,0.016,0.0254,0.0267,0.0275,0.0319,0.0321,0.0324,0.0327,0.0328,0.0442,0.0443,0,0,0,0,0,0,-0.0016,-0.0,0.0047,0.0053,0.0038,0.01,0.011,0.0112,0.0186,0.0199,0.0159,0.0164,0.0261,0.027,0.0279,0.0329,0.0325,0.0328,0.033,0.0441,0.0443,0.0444,0,0,0,0,0,0,-0.0018,-0.0013,0.0044,0.003,0.004,0.01,0.0102,0.0113,0.0131,0.0198,0.0211,0.0166,0.0262,0.0274,0.03,0.0332,0.033,0.0333,0.044,0.0442,0.0443,0.0396,0,0,0,0,0,0,-0.002,-0.0015,-0.0024,0.0028,0.004,0.0061,0.0101,0.0114,0.0136,0.0143,0.0208,0.022,0.0264,0.0294,0.0304,0.0337,0.0336,0.0439,0.0441,0.0443,0.0397,0.0396,0.0395,0,0,0,0,0,-0.0023,-0.0041,-0.0025,-0.0019,0.0027,0.006,0.0069,0.0116,0.0135,0.0137,0.0177,0.0218,0.0314,0.0296,0.0308,0.0343,0.0438,0.044,0.0442,0.0397,0.0396,0.0395,0,0,0,0,0,0,-0.0079,-0.0033,-0.0015,-0.002,0.0016,0.0073,0.0076,0.0108,0.014,0.0145,0.0206,0.0221,0.0264,0.0301,0.0281,0.0384,0.0393,0.0397,0.0354,0.0354,0.0353,0.0365,0.0339,0,0,0,0,0,-0.0096,-0.0094,-0.0044,-0.005,-0.0035,0.0017,0.0034,0.0067,0.0106,0.0122,0.0168,0.0225,0.028,0.0311,0.0356,0.0392,0.0418,0.0432,0.0431,0.043,0.0449,0.0505,0.051,0.045,0.045,0.045,0,0,-0.0122,-0.0096,-0.0096,-0.0061,-0.0032,-0.001,0.003,0.0051,0.008,0.0128,0.0167,0.0212,0.0286,0.0337,0.0363,0.0372,0.0451,0.0432,0.0431,0.0451,0.0507,0.0513,0.0518,0.0452,0.0451,0.0451,0,0,-0.0168,-0.0148,-0.0159,-0.0127,-0.0085,-0.0043,-0.004,0.0014,0.0049,0.008,0.014,0.0198,0.026,0.0338,0.0383,0.0403,0.0438,0.0423,0.0437,0.049,0.0495,0.05,0.0492,0.0497,0.0431,0.0431,0.0431,0,-0.0204,-0.0203,-0.0158,-0.0151,-0.0125,-0.0061,-0.0054,-0.0008,0.0049,0.0086,0.0086,0.0223,0.0273,0.038,0.0393,0.0406,0.0414,0.0428,0.0487,0.0493,0.0499,0.0491,0.0497,0.0429,0.0429,0.043,0.043,0,-0.0245,-0.024,-0.0244,-0.0205,-0.0172,-0.0159,-0.0082,-0.0044,0.0,0.0057,0.0147,0.0218,0.0309,0.0341,0.0372,0.0463,0.0443,0.0468,0.0483,0.0502,0.0492,0.0499,0.0426,0.0427,0.0428,0.0428,0,0,-0.0329,-0.0285,-0.0285,-0.0269,-0.0197,-0.0173,-0.0114,-0.0035,0.0017,0.0084,0.0153,0.0265,0.0314,0.037,0.0433,0.049,0.0518,0.0493,0.0497,0.0473,0.0585,0.0623,0.0634,0.0545,0.0547,0.0549,0.0542,0,-0.0375,-0.0387,-0.0334,-0.0318,-0.0312,-0.0215,-0.0157,-0.007,0.0006,0.0085,0.02,0.0276,0.0326,0.0365,0.0436,0.05,0.0542,0.0515,0.0583,0.0585,0.0608,0.0648,0.0709,0.0715,0.0549,0.055,0.0551,0,-0.0423,-0.0423,-0.0433,-0.0361,-0.0345,-0.0314,-0.0199,-0.0139,0.0006,0.0067,0.0181,0.026,0.0377,0.0398,0.0532,0.0505,0.0546,0.0589,0.059,0.0658,0.064,0.0682,0.0735,0.0854,0.0562,0.0561,0.0561,0,-0.0503,-0.0478,-0.0488,-0.0469,-0.0384,-0.0351,-0.0292,-0.0155,-0.0087,0.005,0.0101,0.0255,0.0317,0.0417,0.052,0.0516,0.0638,0.0641,0.0713,0.0712,0.0802,0.0807,0.098,0.0735,0.0735,0.0735,0.0735,0,-0.056,-0.0561,-0.0532,-0.0535,-0.0517,-0.0426,-0.0369,-0.0275,-0.0142,-0.0046,0.0077,0.0179,0.0325,0.0424,0.0508,0.0636,0.063,0.0731,0.0738,0.0782,0.0785,0.0924,0.0949,0.0734,0.0735,0.0735,0.0735,0,-0.0626,-0.0614,-0.062,-0.0572,-0.0557,-0.0543,-0.0438,-0.0381,-0.0255,-0.0131,-0.0091,0.0102,0.0248,0.0379,0.0531,0.0614,0.0803,0.0771,0.0784,0.0796,0.0985,0.1003,0.1134,0.1212,0.0846,0.0847,0.0848,0,-0.0652,-0.0673,-0.0671,-0.0684,-0.0666,-0.0635,-0.0594,-0.0457,-0.0369,-0.0152,-0.0085,0.0075,0.0267,0.0479,0.0639,0.0788,0.0861,0.0903,0.0944,0.1031,0.1055,0.104,0.1094,0.1007,0.1009,0.1011,0.1012,0,-0.0695,-0.0704,-0.0716,-0.076,-0.0753,-0.071,-0.0633,-0.0564,-0.0362,-0.0213,0.0037,0.0199,0.0409,0.0655,0.0808,0.0898,0.1003,0.0946,0.1063,0.1235,0.1206,0.1271,0.092,0.1029,0.1027,0.1026,0.1025,0.1025,-0.0712,-0.0749,-0.078,-0.0806,-0.0806,-0.0728,-0.0638,-0.0492,-0.0291,0.0054,0.0149,0.0488,0.071,0.0977,0.1046,0.122,0.1156,0.1297,0.1312,0.1287,0.1392,0.1055,0.1166,0.1165,0.1164,0.1164,0.1163,0,-0.0711,-0.0761,-0.0813,-0.0811,-0.0786,-0.0766,-0.0611,-0.0457,-0.0161,0.018,0.0481,0.0902,0.1158,0.1309,0.1495,0.1593,0.16,0.1634,0.1654,0.1696,0.1438,0.1481,0.1637,0.1637,0.1637,0.1636,0.1636,0.1636,-0.0704,-0.0767,-0.0804,-0.0774,-0.075,-0.0618,-0.0492,-0.0262,0.0009,0.0541,0.091,0.1168,0.1378,0.1662,0.1874,0.1909,0.2013,0.1965,0.2014,0.1865,0.1835,0.1807,0.186,0.2092,0.2092,0.2293,0.2295,0.2297]}],[{"header":{"parameterUnit":"m.s-1","parameterCategory":2,"la1":30.2991,"la2":30.254,"lo1":-89.0895,"lo2":-89.0444,"dy":0.0017,"dx":0.0017,"nx":28,"ny":28,"refTime":"2023-03-30T21:00:00:Z","depth":"2","parameterNumber":2,"parameterNumberName":"U-component_of_CURRENTS"},"data":[0,0,0,0,0,0,0,0,0,0,0,0,0,0,0,0,0,0,0,0,0,0,0,0,0,0,0,0,0,0,0,0,0,0,0,0,0,0,0,0,0,0,0,0,0,0,0,0,0,0,0,0,0,0,0,0,0,0,-0.2293,-0.2294,0,-0.2321,-0.2321,-0.2321,-0.2319,-0.2319,-0.2318,-0.2318,-0.2255,-0.2253,-0.2252,0,0,0,0,0,0,0,0,0,0,0,0,0,-0.2204,-0.2206,-0.2293,-0.2294,-0.2294,-0.2321,-0.2321,-0.2321,-0.2319,-0.2319,-0.2318,-0.2318,-0.2255,-0.2253,-0.2252,0,0,0,0,0,0,0,0,0,0,0,0,0,-0.2237,-0.2207,-0.2293,-0.2298,-0.2299,-0.2321,-0.2321,-0.2321,-0.2319,-0.2319,-0.2318,-0.2318,-0.2256,-0.2254,-0.2251,-0.2245,0,0,-0.2245,-0.2244,0,0,0,0,0,0,0,0,-0.2235,-0.224,-0.2297,-0.2298,-0.2299,-0.2318,-0.2267,-0.2292,-0.2319,-0.2309,-0.2318,-0.2318,-0.2269,-0.2266,-0.227,-0.2242,-0.2239,-0.2244,-0.2243,-0.2242,-0.2241,0,0,0,0,0,0,0,-0.2233,-0.2238,-0.2302,-0.2297,-0.2299,-0.2287,-0.2292,-0.2272,-0.2287,-0.231,-0.231,-0.2317,-0.2269,-0.2272,-0.2268,-0.2238,-0.2244,-0.2243,-0.2241,-0.224,-0.2222,-0.2223,0,0,0,0,0,0,-0.2236,-0.2237,-0.2301,-0.2303,-0.2268,-0.2289,-0.2294,-0.231,-0.2289,-0.2287,-0.2317,-0.2317,-0.2276,-0.2271,-0.2266,-0.2272,-0.2242,-0.224,-0.2239,-0.2221,-0.2222,-0.2223,0,0,0,0,0,0,-0.2234,-0.2242,-0.23,-0.2271,-0.2278,-0.2292,-0.231,-0.2311,-0.2323,-0.2297,-0.2292,-0.2328,-0.2276,-0.2269,-0.2254,-0.2268,-0.2239,-0.2237,-0.222,-0.2222,-0.2223,-0.2273,0,0,0,0,0,0,-0.2232,-0.2241,-0.2251,-0.2272,-0.228,-0.2326,-0.231,-0.2312,-0.2328,-0.2328,-0.2304,-0.2298,-0.2275,-0.2257,-0.2252,-0.2265,-0.2235,-0.2219,-0.2221,-0.2222,-0.227,-0.2276,-0.2281,0,0,0,0,0,-0.2229,-0.2237,-0.2252,-0.2259,-0.2295,-0.2327,-0.2331,-0.2336,-0.2329,-0.2343,-0.232,-0.2299,-0.2264,-0.2256,-0.2249,-0.2262,-0.2219,-0.2221,-0.2222,-0.2268,-0.2275,-0.228,0,0,0,0,0,0,-0.2187,-0.2239,-0.2255,-0.2275,-0.2309,-0.2328,-0.2331,-0.2344,-0.234,-0.2329,-0.2303,-0.2296,-0.2291,-0.227,-0.2263,-0.2263,-0.224,-0.2241,-0.2277,-0.2283,-0.2289,-0.2286,-0.2233,0,0,0,0,0,-0.2189,-0.2219,-0.2263,-0.2279,-0.2293,-0.2317,-0.2328,-0.2341,-0.2343,-0.2342,-0.233,-0.231,-0.2294,-0.2283,-0.2269,-0.2263,-0.221,-0.2269,-0.2275,-0.2279,-0.2274,-0.2201,-0.2198,-0.223,-0.223,-0.223,0,0,-0.217,-0.2208,-0.2219,-0.2274,-0.229,-0.2316,-0.2322,-0.2345,-0.2361,-0.2332,-0.2337,-0.2327,-0.2298,-0.2296,-0.2292,-0.2278,-0.2244,-0.2281,-0.2285,-0.2277,-0.2202,-0.2199,-0.2196,-0.2231,-0.2231,-0.223,0,0,-0.2144,-0.2188,-0.22,-0.2239,-0.2285,-0.2313,-0.2325,-0.236,-0.2369,-0.238,-0.2363,-0.2358,-0.2341,-0.2326,-0.2312,-0.2335,-0.2276,-0.2343,-0.2361,-0.2291,-0.2287,-0.2283,-0.2212,-0.2201,-0.2342,-0.2342,-0.2342,0,-0.2112,-0.2151,-0.2205,-0.2232,-0.2259,-0.2314,-0.2329,-0.2354,-0.2382,-0.2379,-0.2384,-0.236,-0.235,-0.233,-0.2354,-0.2345,-0.2295,-0.2339,-0.2295,-0.229,-0.2285,-0.2213,-0.2201,-0.2345,-0.2345,-0.2344,-0.2344,0,-0.21,-0.2137,-0.2146,-0.221,-0.2249,-0.2275,-0.233,-0.2362,-0.2383,-0.2395,-0.2392,-0.2384,-0.2365,-0.2377,-0.2376,-0.2351,-0.2324,-0.231,-0.2275,-0.2284,-0.2209,-0.2195,-0.2349,-0.2348,-0.2347,-0.2346,0,0,-0.1998,-0.2113,-0.2114,-0.2151,-0.2243,-0.2271,-0.2313,-0.2354,-0.2359,-0.2391,-0.2371,-0.239,-0.2391,-0.2377,-0.238,-0.2342,-0.2283,-0.2326,-0.2321,-0.2248,-0.2121,-0.2075,-0.2055,-0.2259,-0.2257,-0.2255,-0.2083,0,-0.1964,-0.2014,-0.2085,-0.2132,-0.2164,-0.2247,-0.2284,-0.2331,-0.2356,-0.2357,-0.2356,-0.2343,-0.2388,-0.2379,-0.2355,-0.2294,-0.2248,-0.2331,-0.213,-0.2123,-0.2074,-0.2038,-0.1924,-0.1758,-0.2068,-0.2066,-0.2064,0,-0.192,-0.1972,-0.2008,-0.2115,-0.2131,-0.2165,-0.2231,-0.2273,-0.23,-0.2316,-0.2316,-0.231,-0.2288,-0.2311,-0.2209,-0.2259,-0.2202,-0.2155,-0.2146,-0.2073,-0.2051,-0.1799,-0.172,-0.204,-0.2042,-0.2043,-0.2045,0,-0.183,-0.1917,-0.195,-0.1985,-0.2105,-0.2124,-0.2181,-0.2237,-0.2257,-0.2274,-0.2262,-0.2246,-0.2207,-0.2152,-0.2107,-0.2139,-0.1964,-0.1979,-0.1878,-0.1874,-0.1721,-0.1707,-0.1883,-0.1883,-0.1883,-0.1884,-0.1884,0,-0.1782,-0.1805,-0.1906,-0.1928,-0.1952,-0.206,-0.2073,-0.2135,-0.2178,-0.2183,-0.2224,-0.2197,-0.2164,-0.2083,-0.2052,-0.1917,-0.1911,-0.1861,-0.1818,-0.1738,-0.1728,-0.1935,-0.1943,-0.1877,-0.1879,-0.188,-0.1881,0,-0.1683,-0.1759,-0.1791,-0.1889,-0.1913,-0.1923,-0.201,-0.2034,-0.209,-0.2087,-0.209,-0.2105,-0.2013,-0.1965,-0.1842,-0.1815,-0.1711,-0.1667,-0.1584,-0.1536,-0.1679,-0.1692,-0.1509,-0.1505,-0.1503,-0.15,-0.1498,0,-0.1638,-0.1646,-0.172,-0.1737,-0.1776,-0.1814,-0.186,-0.1966,-0.2005,-0.2033,-0.2029,-0.1945,-0.1876,-0.1687,-0.1614,-0.1491,-0.1591,-0.1341,-0.1393,-0.1659,-0.1636,-0.1654,-0.167,-0.1202,-0.1197,-0.1194,-0.1191,0,-0.1537,-0.1555,-0.1586,-0.1614,-0.1653,-0.1692,-0.1764,-0.1764,-0.1892,-0.1868,-0.1826,-0.175,-0.1627,-0.1441,-0.1324,-0.1268,-0.1359,-0.1267,-0.1507,-0.1342,-0.1362,-0.1344,-0.137,-0.1161,-0.1164,-0.1166,-0.1168,-0.1169,-0.1437,-0.142,-0.1459,-0.1476,-0.1523,-0.1543,-0.1493,-0.1575,-0.1553,-0.1491,-0.1579,-0.1416,-0.1438,-0.1148,-0.1081,-0.1019,-0.112,-0.1087,-0.11,-0.1116,-0.1138,-0.1156,-0.0919,-0.092,-0.0921,-0.0923,-0.0924,0,-0.1316,-0.1324,-0.1332,-0.1346,-0.1331,-0.1403,-0.1418,-0.1338,-0.1226,-0.1232,-0.1151,-0.1026,-0.091,-0.0911,-0.0755,-0.075,-0.0769,-0.0737,-0.0765,-0.0794,-0.0821,-0.0833,-0.0529,-0.0528,-0.0527,-0.0526,0,0,-0.1264,-0.1224,-0.123,-0.1149,-0.1148,-0.1056,-0.0999,-0.0899,-0.0849,-0.0699,-0.063,-0.0738,-0.0816,-0.0648,-0.0649,-0.0534,-0.0649,-0.0508,-0.082,-0.0875,-0.09,-0.1017,-0.1066,0,0,0,0,0]},{"header":{"parameterUnit":"m.s-1","parameterCategory":2,"la1":30.2991,"la2":30.254,"lo1":-89.0895,"lo2":-89.0444,"dy":0.0017,"dx":0.0017,"nx":28,"ny":28,"refTime":"2023-03-30T21:00:00:Z","depth":"2","parameterNumber":3,"parameterNumberName":"V-component_of_CURRENTS"},"data":[0,0,0,0,0,0,0,0,0,0,0,0,0,0,0,0,0,0,0,0,0,0,0,0,0,0,0,0,0,0,0,0,0,0,0,0,0,0,0,0,0,0,0,0,0,0,0,0,0,0,0,0,0,0,0,0,0,0,-0.011,-0.0109,0,-0.003,-0.0029,-0.0028,0.0043,0.0044,0.0045,0.0046,0.017,0.0173,0.0175,0,0,0,0,0,0,0,0,0,0,0,0,0,-0.0168,-0.0168,-0.011,-0.0109,-0.0108,-0.003,-0.0029,-0.0028,0.0043,0.0044,0.0045,0.0046,0.017,0.0173,0.0176,0,0,0,0,0,0,0,0,0,0,0,0,0,-0.0121,-0.0168,-0.011,-0.0063,-0.0058,-0.003,-0.0029,-0.0027,0.0043,0.0044,0.0045,0.0047,0.0169,0.0172,0.0176,0.0175,0,0,0.0188,0.0189,0,0,0,0,0,0,0,0,-0.0124,-0.0119,-0.0071,-0.0067,-0.0061,-0.0002,-0.0004,0.0042,0.0043,0.0004,0.0046,0.0047,0.0116,0.0124,0.0136,0.0181,0.0186,0.0188,0.019,0.0192,0.0193,0,0,0,0,0,0,0,-0.0127,-0.0122,-0.0078,-0.007,-0.0064,-0.0035,-0.0027,0.0005,0.0053,0.0008,0.0013,0.0022,0.0119,0.0132,0.0139,0.0188,0.0188,0.0191,0.0194,0.0195,0.0304,0.0304,0,0,0,0,0,0,-0.0141,-0.0126,-0.0081,-0.0076,-0.009,-0.0035,-0.0026,-0.0022,0.0052,0.0064,0.0021,0.0025,0.0125,0.0135,0.0144,0.0196,0.0192,0.0196,0.0198,0.0303,0.0304,0.0305,0,0,0,0,0,0,-0.0142,-0.0138,-0.0084,-0.0098,-0.009,-0.0035,-0.0031,-0.0021,-0.0,0.0061,0.0074,0.0032,0.0126,0.0139,0.0169,0.02,0.0197,0.0201,0.0303,0.0303,0.0304,0.0268,0,0,0,0,0,0,-0.0144,-0.0139,-0.0145,-0.01,-0.0089,-0.0068,-0.0032,-0.0021,0.0003,0.0009,0.0075,0.0088,0.0128,0.0163,0.0173,0.0205,0.0204,0.0302,0.0303,0.0304,0.0269,0.0268,0.0267,0,0,0,0,0,-0.0147,-0.0162,-0.0146,-0.0141,-0.0098,-0.0068,-0.006,-0.0017,0.0002,0.0007,0.0046,0.0086,0.0179,0.0165,0.0177,0.0211,0.0301,0.0303,0.0304,0.0269,0.0268,0.0267,0,0,0,0,0,0,-0.0196,-0.0155,-0.0136,-0.014,-0.0106,-0.0056,-0.0052,-0.0022,0.0012,0.0018,0.0077,0.0091,0.0136,0.0169,0.0153,0.0247,0.0254,0.0257,0.0223,0.0223,0.0222,0.0228,0.0207,0,0,0,0,0,-0.0211,-0.0208,-0.0162,-0.0166,-0.0152,-0.0103,-0.0087,-0.0057,-0.0019,-0.0002,0.0044,0.0097,0.0148,0.0179,0.0221,0.0258,0.0282,0.0294,0.0293,0.0292,0.0305,0.0361,0.0366,0.0309,0.0309,0.0309,0,0,-0.0234,-0.021,-0.021,-0.0176,-0.0148,-0.0131,-0.009,-0.007,-0.0047,0.0005,0.004,0.0087,0.0154,0.0202,0.0228,0.0236,0.0312,0.0293,0.0292,0.0306,0.0363,0.0369,0.0374,0.031,0.031,0.031,0,0,-0.0277,-0.0255,-0.0265,-0.0236,-0.0196,-0.0161,-0.0156,-0.0105,-0.0071,-0.0041,0.0015,0.0076,0.0135,0.0205,0.0245,0.0264,0.03,0.0282,0.0292,0.0345,0.035,0.0355,0.0352,0.0357,0.0289,0.0289,0.0289,0,-0.0307,-0.0306,-0.0264,-0.0257,-0.0238,-0.0176,-0.0173,-0.0132,-0.0076,-0.0041,-0.0035,0.0095,0.0145,0.0242,0.0253,0.0266,0.0277,0.0287,0.0344,0.0349,0.0355,0.0351,0.0358,0.0288,0.0288,0.0288,0.0288,0,-0.0346,-0.0342,-0.0345,-0.0312,-0.0285,-0.0276,-0.0209,-0.0174,-0.0131,-0.0078,0.0012,0.0085,0.0172,0.0204,0.0233,0.0318,0.0302,0.0326,0.0342,0.0359,0.0353,0.036,0.0285,0.0286,0.0286,0.0287,0,0,-0.042,-0.0382,-0.0382,-0.0372,-0.0312,-0.0294,-0.0249,-0.0181,-0.0135,-0.0065,0.0001,0.0109,0.0167,0.0218,0.0283,0.034,0.0374,0.0347,0.0351,0.0336,0.0447,0.0484,0.0495,0.0404,0.0406,0.0408,0.0411,0,-0.0462,-0.0476,-0.0432,-0.0427,-0.0426,-0.0344,-0.03,-0.0225,-0.0153,-0.0076,0.004,0.0119,0.017,0.0217,0.0286,0.0354,0.0398,0.0368,0.0442,0.0443,0.047,0.0508,0.0461,0.0466,0.0418,0.0419,0.042,0,-0.0508,-0.051,-0.0526,-0.0473,-0.0461,-0.044,-0.0348,-0.0299,-0.0165,-0.0102,0.0014,0.0097,0.0214,0.0242,0.0378,0.0352,0.0398,0.0445,0.0447,0.0508,0.0497,0.0453,0.0481,0.0432,0.0431,0.043,0.0429,0,-0.0583,-0.0566,-0.0583,-0.0569,-0.0504,-0.0479,-0.0433,-0.0313,-0.0253,-0.0116,-0.0062,0.009,0.0161,0.026,0.0371,0.0367,0.0495,0.05,0.0575,0.0574,0.0567,0.0564,0.0592,0.0592,0.0592,0.0592,0.0592,0,-0.0639,-0.0646,-0.0622,-0.063,-0.0623,-0.0548,-0.0503,-0.0421,-0.0298,-0.021,-0.0083,0.0019,0.0171,0.0273,0.0359,0.0492,0.0487,0.0589,0.06,0.0548,0.0545,0.0552,0.0548,0.0592,0.0592,0.0592,0.0592,0,-0.0704,-0.0695,-0.0708,-0.0672,-0.0661,-0.0654,-0.0567,-0.0519,-0.0398,-0.0284,-0.0242,-0.0049,0.0102,0.0236,0.0394,0.0475,0.0593,0.0637,0.0543,0.0546,0.0623,0.0616,0.0711,0.0712,0.0714,0.0715,0.0716,0,-0.0732,-0.0754,-0.0759,-0.0776,-0.0762,-0.074,-0.0711,-0.0587,-0.0513,-0.0303,-0.0244,-0.0073,0.0108,0.0332,0.0478,0.0625,0.0635,0.0661,0.068,0.0646,0.0646,0.0637,0.0628,0.0618,0.0618,0.0619,0.0619,0,-0.0778,-0.0786,-0.0803,-0.0851,-0.0851,-0.0824,-0.0763,-0.0709,-0.0528,-0.0424,-0.0209,-0.0052,0.0197,0.0394,0.0573,0.0645,0.0637,0.0672,0.0679,0.0615,0.0566,0.0563,0.0557,0.062,0.062,0.062,0.062,0.062,-0.0799,-0.0836,-0.0871,-0.0902,-0.0911,-0.0864,-0.0831,-0.0722,-0.0594,-0.0405,-0.0246,-0.0056,0.0194,0.0431,0.0594,0.0683,0.0706,0.0714,0.0711,0.0707,0.0716,0.0676,0.0747,0.0748,0.0748,0.0749,0.0749,0,-0.0813,-0.0858,-0.0912,-0.0925,-0.0928,-0.09,-0.0833,-0.0778,-0.0626,-0.0469,-0.0296,-0.0094,0.0159,0.0371,0.0554,0.0723,0.0678,0.0709,0.0636,0.0635,0.0634,0.0636,0.0647,0.0647,0.0647,0.0647,0,0,-0.0817,-0.0883,-0.0919,-0.0927,-0.091,-0.0871,-0.0825,-0.0732,-0.0645,-0.051,-0.0407,-0.0242,0.0121,0.0216,0.0444,0.0553,0.0528,0.0528,0.0595,0.0482,0.0478,0.0627,0.063,0,0,0,0,0]}],[{"header":{"parameterUnit":"m.s-1","parameterCategory":2,"la1":30.2991,"la2":30.254,"lo1":-89.0895,"lo2":-89.0444,"dy":0.0017,"dx":0.0017,"nx":28,"ny":28,"refTime":"2023-03-30T21:00:00:Z","depth":"4","parameterNumber":2,"parameterNumberName":"U-component_of_CURRENTS"},"data":[0,0,0,0,0,0,0,0,0,0,0,0,0,0,0,0,0,0,0,0,0,0,0,0,0,0,0,0,0,0,0,0,0,0,0,0,0,0,0,0,0,0,0,0,0,0,0,0,0,0,0,0,0,0,0,0,0,0,-0.1133,-0.1133,0,-0.1155,-0.1156,-0.1156,-0.1165,-0.1165,-0.1164,-0.1164,-0.1179,-0.118,-0.1181,0,0,0,0,0,0,0,0,0,0,0,0,0,-0.108,-0.1081,-0.1133,-0.1133,-0.1132,-0.1155,-0.1156,-0.1156,-0.1165,-0.1165,-0.1164,-0.1164,-0.1179,-0.118,-0.1181,0,0,0,0,0,0,0,0,0,0,0,0,0,-0.1106,-0.1082,-0.1133,-0.1137,-0.1137,-0.1155,-0.1156,-0.1157,-0.1165,-0.1165,-0.1164,-0.1163,-0.1179,-0.118,-0.1181,-0.1201,0,0,-0.1185,-0.1185,0,0,0,0,0,0,0,0,-0.1105,-0.1109,-0.1136,-0.1136,-0.1137,-0.1153,-0.1142,-0.117,-0.1165,-0.1159,-0.1164,-0.1163,-0.1168,-0.117,-0.1181,-0.1201,-0.1202,-0.1185,-0.1185,-0.1186,-0.1186,0,0,0,0,0,0,0,-0.1103,-0.1108,-0.1145,-0.1136,-0.1136,-0.1131,-0.1135,-0.1148,-0.1169,-0.1159,-0.1159,-0.1155,-0.1168,-0.118,-0.1181,-0.1202,-0.1185,-0.1186,-0.1186,-0.1187,-0.1304,-0.1306,0,0,0,0,0,0,-0.1094,-0.1106,-0.1145,-0.1146,-0.1115,-0.1132,-0.1137,-0.1152,-0.1169,-0.117,-0.1156,-0.1156,-0.1178,-0.118,-0.1182,-0.1251,-0.1186,-0.1187,-0.1188,-0.1301,-0.1304,-0.1307,0,0,0,0,0,0,-0.1094,-0.1099,-0.1144,-0.1122,-0.1127,-0.1134,-0.1151,-0.1152,-0.1181,-0.1166,-0.1168,-0.1184,-0.1178,-0.118,-0.1231,-0.125,-0.1188,-0.1189,-0.1299,-0.1302,-0.1306,-0.136,0,0,0,0,0,0,-0.1092,-0.1099,-0.1122,-0.1122,-0.1128,-0.1174,-0.1151,-0.1153,-0.1177,-0.1177,-0.119,-0.119,-0.1177,-0.123,-0.1232,-0.125,-0.119,-0.1296,-0.13,-0.1304,-0.1355,-0.1365,-0.1373,0,0,0,0,0,-0.1091,-0.1124,-0.1123,-0.1128,-0.1155,-0.1176,-0.118,-0.1183,-0.1179,-0.1205,-0.1224,-0.1191,-0.1259,-0.1233,-0.1235,-0.1254,-0.1293,-0.1299,-0.1304,-0.1351,-0.1363,-0.1373,0,0,0,0,0,0,-0.1125,-0.1127,-0.1127,-0.1163,-0.1175,-0.1176,-0.1204,-0.1199,-0.1235,-0.1246,-0.1228,-0.1231,-0.1277,-0.1272,-0.1244,-0.1305,-0.1268,-0.1274,-0.1303,-0.1314,-0.1323,-0.1308,-0.1191,0,0,0,0,0,-0.1139,-0.1161,-0.1163,-0.1196,-0.1207,-0.1211,-0.1224,-0.1227,-0.1246,-0.1261,-0.1273,-0.1288,-0.13,-0.1313,-0.1329,-0.137,-0.134,-0.1384,-0.1393,-0.14,-0.1393,-0.1379,-0.1385,-0.1325,-0.1324,-0.1324,0,0,-0.1162,-0.1166,-0.118,-0.1204,-0.1218,-0.1239,-0.122,-0.1255,-0.1273,-0.1258,-0.1314,-0.1324,-0.132,-0.1363,-0.1382,-0.1362,-0.1407,-0.1407,-0.1413,-0.1401,-0.1385,-0.139,-0.1395,-0.1328,-0.1327,-0.1327,0,0,-0.1212,-0.1227,-0.1261,-0.1272,-0.1293,-0.1286,-0.1299,-0.1322,-0.134,-0.139,-0.1378,-0.1407,-0.1442,-0.1436,-0.1433,-0.1506,-0.1455,-0.1517,-0.1548,-0.1535,-0.1539,-0.1542,-0.1518,-0.1518,-0.1521,-0.1521,-0.1521,0,-0.1245,-0.1273,-0.1277,-0.1309,-0.1314,-0.1308,-0.1337,-0.1356,-0.1394,-0.1405,-0.142,-0.1458,-0.1467,-0.1475,-0.1512,-0.1521,-0.1506,-0.15,-0.1543,-0.1545,-0.1547,-0.1522,-0.1521,-0.1524,-0.1524,-0.1524,-0.1523,0,-0.1298,-0.1332,-0.1357,-0.138,-0.1395,-0.1421,-0.1427,-0.1456,-0.147,-0.1474,-0.1513,-0.1535,-0.1547,-0.1561,-0.1563,-0.1582,-0.1564,-0.1552,-0.1505,-0.1556,-0.1527,-0.1525,-0.1529,-0.1528,-0.1527,-0.1526,0,0,-0.1319,-0.1383,-0.1388,-0.1401,-0.1428,-0.1433,-0.1474,-0.1484,-0.1482,-0.1539,-0.1547,-0.1593,-0.1599,-0.1599,-0.1601,-0.1603,-0.162,-0.1598,-0.1595,-0.1555,-0.1588,-0.1485,-0.1472,-0.1616,-0.1616,-0.1617,-0.1563,0,-0.1352,-0.141,-0.1434,-0.147,-0.1487,-0.1495,-0.1512,-0.1524,-0.1536,-0.1551,-0.157,-0.159,-0.1611,-0.1624,-0.1634,-0.1623,-0.1618,-0.1634,-0.156,-0.1558,-0.1444,-0.1468,-0.1617,-0.1561,-0.1561,-0.1561,-0.156,0,-0.1359,-0.1396,-0.1449,-0.1477,-0.1487,-0.1508,-0.1497,-0.152,-0.1534,-0.1553,-0.1578,-0.1592,-0.1622,-0.163,-0.1625,-0.1638,-0.1624,-0.1609,-0.1606,-0.1483,-0.1451,-0.1501,-0.1556,-0.1557,-0.1557,-0.1557,-0.1557,0,-0.1296,-0.138,-0.1412,-0.1428,-0.1476,-0.1497,-0.151,-0.1519,-0.1533,-0.1557,-0.1575,-0.1592,-0.1617,-0.1607,-0.161,-0.1623,-0.158,-0.1584,-0.1466,-0.1458,-0.154,-0.1538,-0.1562,-0.1562,-0.1562,-0.1562,-0.1562,0,-0.1264,-0.1289,-0.1392,-0.1402,-0.1418,-0.1468,-0.1473,-0.1486,-0.1523,-0.1524,-0.158,-0.1583,-0.1619,-0.1609,-0.1597,-0.152,-0.1568,-0.1461,-0.1434,-0.1568,-0.157,-0.1539,-0.1537,-0.156,-0.1561,-0.1561,-0.1561,0,-0.1171,-0.1249,-0.1282,-0.1363,-0.1389,-0.1392,-0.146,-0.1454,-0.1509,-0.1519,-0.1542,-0.1592,-0.1569,-0.1565,-0.1535,-0.1491,-0.1429,-0.1386,-0.152,-0.1503,-0.132,-0.1322,-0.1245,-0.1241,-0.1238,-0.1235,-0.1232,0,-0.1127,-0.1142,-0.1231,-0.1252,-0.1297,-0.1334,-0.1347,-0.1424,-0.1429,-0.1504,-0.1496,-0.152,-0.153,-0.1389,-0.141,-0.1335,-0.1323,-0.1287,-0.1317,-0.1304,-0.1286,-0.1294,-0.1301,-0.1227,-0.1226,-0.1225,-0.1224,0,-0.1033,-0.1074,-0.1103,-0.1137,-0.1175,-0.1192,-0.1235,-0.1238,-0.1315,-0.142,-0.1396,-0.1382,-0.1344,-0.1309,-0.1251,-0.121,-0.131,-0.125,-0.1258,-0.1286,-0.1281,-0.1268,-0.1279,-0.1212,-0.1213,-0.1215,-0.1215,0,-0.0957,-0.0947,-0.0984,-0.0992,-0.1027,-0.0999,-0.1057,-0.1079,-0.1106,-0.1231,-0.1226,-0.1253,-0.1325,-0.1242,-0.1196,-0.1135,-0.1125,-0.1095,-0.1111,-0.1125,-0.1111,-0.1088,-0.0925,0,0,0,0,0,-0.0877,-0.0841,-0.0837,-0.0821,-0.0839,-0.0843,-0.0941,-0.1013,-0.1136,-0.1083,-0.115,-0.1114,-0.1071,-0.1095,-0.1001,-0.1117,-0.1106,-0.1004,-0.1075,-0.1144,-0.1158,-0.1153,0,0,0,0,0,0,-0.0822,-0.0813,-0.0783,-0.065,-0.0602,-0.0595,-0.0643,-0.0747,-0.0735,-0.0893,-0.087,-0.1014,-0.0974,-0.1065,-0.0954,-0.0961,-0.0979,-0.105,-0.1046,-0.1136,-0.1149,-0.116,-0.116,0,0,0,0,0]},{"header":{"parameterUnit":"m.s-1","parameterCategory":2,"la1":30.2991,"la2":30.254,"lo1":-89.0895,"lo2":-89.0444,"dy":0.0017,"dx":0.0017,"nx":28,"ny":28,"refTime":"2023-03-30T21:00:00:Z","depth":"4","parameterNumber":3,"parameterNumberName":"V-component_of_CURRENTS"},"data":[0,0,0,0,0,0,0,0,0,0,0,0,0,0,0,0,0,0,0,0,0,0,0,0,0,0,0,0,0,0,0,0,0,0,0,0,0,0,0,0,0,0,0,0,0,0,0,0,0,0,0,0,0,0,0,0,0,0,-0.0254,-0.0254,0,-0.0259,-0.0259,-0.0259,-0.0283,-0.0284,-0.0284,-0.0284,-0.0234,-0.0232,-0.0231,0,0,0,0,0,0,0,0,0,0,0,0,0,-0.0274,-0.0273,-0.0254,-0.0254,-0.0254,-0.0259,-0.0259,-0.0259,-0.0283,-0.0284,-0.0284,-0.0285,-0.0234,-0.0232,-0.023,0,0,0,0,0,0,0,0,0,0,0,0,0,-0.0272,-0.0273,-0.0254,-0.0265,-0.0266,-0.0259,-0.0259,-0.0259,-0.0283,-0.0284,-0.0284,-0.0285,-0.0235,-0.0233,-0.023,-0.0202,0,0,-0.0222,-0.0221,0,0,0,0,0,0,0,0,-0.0272,-0.0272,-0.0264,-0.0264,-0.0265,-0.027,-0.0247,-0.0237,-0.0283,-0.0279,-0.0284,-0.0285,-0.0239,-0.0236,-0.0239,-0.02,-0.0197,-0.0222,-0.022,-0.0219,-0.0219,0,0,0,0,0,0,0,-0.0272,-0.0272,-0.0258,-0.0264,-0.0265,-0.0272,-0.0273,-0.0246,-0.0256,-0.0279,-0.028,-0.0278,-0.0239,-0.0242,-0.0238,-0.0197,-0.0222,-0.022,-0.0218,-0.0217,-0.0151,-0.0151,0,0,0,0,0,0,-0.0267,-0.0272,-0.0258,-0.0258,-0.0268,-0.0271,-0.0272,-0.0269,-0.0257,-0.0256,-0.0277,-0.0279,-0.0246,-0.0241,-0.0236,-0.0228,-0.0219,-0.0217,-0.0215,-0.0151,-0.0151,-0.0151,0,0,0,0,0,0,-0.0267,-0.0266,-0.0258,-0.0264,-0.0263,-0.027,-0.0267,-0.0269,-0.0273,-0.0256,-0.0254,-0.0279,-0.0246,-0.024,-0.0206,-0.0225,-0.0216,-0.0213,-0.0151,-0.0151,-0.0151,-0.0194,0,0,0,0,0,0,-0.0268,-0.0266,-0.0271,-0.0263,-0.0262,-0.0259,-0.0266,-0.0268,-0.0269,-0.0272,-0.0257,-0.0253,-0.0246,-0.021,-0.0204,-0.0221,-0.0211,-0.0152,-0.0151,-0.0151,-0.0192,-0.0195,-0.0197,0,0,0,0,0,-0.0269,-0.0276,-0.0271,-0.027,-0.0266,-0.0259,-0.026,-0.0268,-0.0269,-0.0273,-0.0253,-0.0254,-0.0204,-0.0207,-0.02,-0.0217,-0.0152,-0.0151,-0.0151,-0.0191,-0.0194,-0.0197,0,0,0,0,0,0,-0.0292,-0.0278,-0.0273,-0.0277,-0.0268,-0.0262,-0.027,-0.0265,-0.0254,-0.0254,-0.0237,-0.0231,-0.0216,-0.0198,-0.0202,-0.0196,-0.0183,-0.0181,-0.0216,-0.0219,-0.0221,-0.0244,-0.0209,0,0,0,0,0,-0.0295,-0.0299,-0.028,-0.0285,-0.0278,-0.027,-0.027,-0.0269,-0.0255,-0.0253,-0.0238,-0.0221,-0.0207,-0.0198,-0.0181,-0.0164,-0.0124,-0.0173,-0.0175,-0.0177,-0.019,-0.0143,-0.0142,-0.0149,-0.0149,-0.0149,0,0,-0.0308,-0.03,-0.0303,-0.0291,-0.0285,-0.0289,-0.0273,-0.027,-0.0279,-0.0244,-0.0247,-0.0223,-0.0202,-0.0194,-0.0187,-0.0183,-0.0145,-0.0177,-0.0179,-0.019,-0.0142,-0.0142,-0.0141,-0.0149,-0.0149,-0.0149,0,0,-0.0331,-0.0321,-0.0328,-0.0318,-0.0305,-0.0303,-0.03,-0.0284,-0.0284,-0.0268,-0.0255,-0.0237,-0.0209,-0.0208,-0.0201,-0.0199,-0.0157,-0.0194,-0.0227,-0.0181,-0.018,-0.0179,-0.0091,-0.0082,-0.0198,-0.0198,-0.0198,0,-0.0348,-0.0351,-0.033,-0.033,-0.0332,-0.031,-0.0319,-0.0315,-0.0293,-0.0288,-0.0275,-0.0244,-0.0224,-0.0225,-0.0231,-0.0209,-0.0155,-0.0222,-0.0185,-0.0183,-0.0181,-0.0092,-0.0081,-0.02,-0.02,-0.02,-0.0199,0,-0.0368,-0.0373,-0.0375,-0.0374,-0.0372,-0.0375,-0.036,-0.036,-0.035,-0.0337,-0.0322,-0.0289,-0.0272,-0.0267,-0.025,-0.0238,-0.0192,-0.0191,-0.0182,-0.0184,-0.0088,-0.0076,-0.0203,-0.0202,-0.0202,-0.0201,0,0,-0.0406,-0.0395,-0.0398,-0.0404,-0.0395,-0.0398,-0.0409,-0.041,-0.0414,-0.039,-0.0383,-0.0369,-0.0339,-0.0329,-0.0303,-0.0272,-0.0201,-0.023,-0.0226,-0.0149,-0.0058,-0.008,-0.0068,-0.019,-0.0189,-0.0188,0.0018,0,-0.0433,-0.0454,-0.0437,-0.0464,-0.0476,-0.0458,-0.0472,-0.0466,-0.0448,-0.0431,-0.0399,-0.0375,-0.0365,-0.0345,-0.0317,-0.0221,-0.0178,-0.0255,-0.0063,-0.0057,-0.0083,-0.006,-0.0186,0.0027,0.0029,0.0031,0.0033,0,-0.0462,-0.0475,-0.0507,-0.0514,-0.0515,-0.0529,-0.0543,-0.0545,-0.0515,-0.0493,-0.0466,-0.0416,-0.0363,-0.0354,-0.0213,-0.0254,-0.0169,-0.0101,-0.0091,-0.0098,-0.006,0.0021,0.0054,0.0053,0.0051,0.005,0.0048,0,-0.0515,-0.0524,-0.0559,-0.056,-0.0565,-0.0578,-0.0583,-0.0569,-0.0558,-0.052,-0.0482,-0.0425,-0.0355,-0.0271,-0.0136,-0.0156,0.0036,0.0032,0.0092,0.0095,0.0073,0.0069,0.0115,0.0115,0.0114,0.0114,0.0113,0,-0.0555,-0.0579,-0.0587,-0.0604,-0.0643,-0.0622,-0.0643,-0.0639,-0.06,-0.0578,-0.051,-0.0457,-0.033,-0.0205,-0.0114,0.0036,0.0062,0.0093,0.0134,0.0057,0.0049,0.0084,0.0078,0.0122,0.012,0.0118,0.0117,0,-0.0599,-0.0607,-0.0644,-0.0661,-0.0669,-0.0695,-0.0681,-0.0689,-0.0636,-0.0597,-0.0574,-0.0434,-0.0269,-0.0138,0.0045,0.0089,0.0213,0.0251,0.0198,0.0233,0.0248,0.0237,0.0359,0.036,0.036,0.0361,0.0361,0,-0.062,-0.0647,-0.0691,-0.0722,-0.073,-0.0753,-0.0775,-0.0735,-0.0725,-0.0587,-0.0567,-0.0377,-0.0286,-0.0027,0.0099,0.0287,0.0278,0.0356,0.0249,0.0238,0.0268,0.0256,0.0245,0.0362,0.0362,0.0363,0.0363,0,-0.0656,-0.0679,-0.071,-0.0779,-0.0815,-0.0846,-0.0855,-0.0846,-0.0781,-0.0704,-0.056,-0.0408,-0.0209,-0.003,0.0124,0.024,0.0308,0.0362,0.036,0.026,0.0244,0.0269,0.0258,0.0365,0.0364,0.0364,0.0364,0,-0.0681,-0.0716,-0.0768,-0.0819,-0.088,-0.0931,-0.0928,-0.0889,-0.0853,-0.0696,-0.0638,-0.0415,-0.026,-0.0048,0.0087,0.0207,0.0218,0.0214,0.022,0.022,0.0086,0.0038,0.0137,0,0,0,0,0,-0.0702,-0.0743,-0.0802,-0.0867,-0.093,-0.0959,-0.0979,-0.096,-0.0876,-0.0799,-0.0719,-0.0545,-0.0285,-0.0143,-0.0031,0.0073,0.0221,0.0205,0.0213,0.0375,0.0373,0.0232,0,0,0,0,0,0,-0.0722,-0.078,-0.0805,-0.0894,-0.0943,-0.1008,-0.1031,-0.0982,-0.0929,-0.0816,-0.0678,-0.0537,-0.0288,-0.0348,-0.0028,0.002,0.0031,0.0356,0.0357,0.0377,0.0375,0.0373,0.0227,0,0,0,0,0]}]]